| time (UTC) | temp F | wind direction | speed knots | gust knots | rain 1hr in | rain 24hr in | rain mn in | humidity % | barometer mb |
| 20260508054526 | 56 | 360 | 0.0 | 0.9 | 0.00 | 0.00 | 0.00 | 100 | 1010.9 |
| 20260508053016 | 55 | 360 | 0.0 | 1.7 | 0.00 | 0.00 | 0.00 | 100 | 1010.9 |
| 20260508051523 | 55 | 360 | 0.9 | 2.6 | 0.00 | 0.00 | 0.00 | 100 | 1010.9 |
| 20260508050018 | 55 | 360 | 0.9 | 3.5 | 0.00 | 0.00 | 0.00 | 100 | 1010.8 |
| 20260508044511 | 55 | 360 | 0.9 | 3.5 | 0.00 | 0.00 | 0.00 | 100 | 1010.8 |
| 20260508043012 | 55 | 360 | 0.9 | 4.3 | 0.00 | 0.00 | 0.00 | 100 | 1010.7 |
| 20260508041509 | 56 | 360 | 1.7 | 2.6 | 0.00 | 0.00 | 0.00 | 100 | 1010.6 |
| 20260508040006 | 55 | 360 | 0.0 | 0.0 | 0.00 | 0.00 | 0.00 | 100 | 1010.3 |
| 20260508034506 | 55 | 360 | 0.0 | 0.0 | 0.00 | 0.00 | 0.00 | 100 | 1010.3 |
| 20260508033101 | 55 | 360 | 0.0 | 1.7 | 0.00 | 0.00 | 0.00 | 100 | 1010.2 |
| 20260508031606 | 56 | 360 | 1.7 | 3.5 | 0.00 | 0.00 | 0.00 | 100 | 1010.4 |
| 20260508030105 | 56 | 360 | 0.0 | 0.9 | 0.00 | 0.00 | 0.00 | 100 | 1010.3 |
| 20260508024554 | 56 | 360 | 0.9 | 3.5 | 0.00 | 0.00 | 0.00 | 100 | 1010.3 |
| 20260508023051 | 56 | 360 | 0.0 | 1.7 | 0.00 | 0.00 | 0.00 | 100 | 1010.2 |
| 20260508021551 | 56 | 360 | 0.0 | 0.0 | 0.00 | 0.00 | 0.00 | 100 | 1010.1 |
| 20260508020049 | 57 | 360 | 0.0 | 0.0 | 0.00 | 0.00 | 0.00 | 100 | 1010.2 |
| 20260508014545 | 57 | 360 | 0.0 | 0.0 | 0.00 | 0.00 | 0.00 | 100 | 1010.2 |
| 20260508013043 | 57 | 360 | 0.0 | 0.0 | 0.00 | 0.00 | 0.00 | 100 | 1010.3 |
| 20260508011546 | 57 | 360 | 0.9 | 2.6 | 0.00 | 0.00 | 0.00 | 100 | 1010.2 |
| 20260508010042 | 58 | 360 | 0.0 | 0.0 | 0.00 | 0.00 | 0.00 | 100 | 1010.2 |
| 20260508004540 | 58 | 360 | 0.0 | 0.0 | 0.00 | 0.00 | 0.00 | 100 | 1010.2 |
| 20260508003038 | 58 | 360 | 0.0 | 0.0 | 0.00 | 0.00 | 0.00 | 100 | 1010.3 |
| 20260508001538 | 59 | 360 | 0.0 | 0.0 | 0.00 | 0.00 | 0.00 | 100 | 1010.2 |
| 20260508000037 | 59 | 360 | 0.0 | 2.6 | 0.00 | 0.00 | 0.00 | 100 | 1010.2 |
| 20260507234542 | 59 | 360 | 0.9 | 3.5 | 0.00 | 0.00 | 0.00 | 100 | 1010.1 |
| 20260507233035 | 60 | 360 | 0.9 | 4.3 | 0.00 | 0.00 | 0.00 | 100 | 1010.1 |
| 20260507231536 | 60 | 360 | 0.0 | 3.5 | 0.00 | 0.00 | 0.00 | 100 | 1010.1 |
| 20260507230030 | 60 | 360 | 0.9 | 2.6 | 0.00 | 0.00 | 0.00 | 100 | 1009.8 |
| 20260507224529 | 60 | 360 | 0.0 | 0.0 | 0.00 | 0.00 | 0.00 | 100 | 1009.9 |
| 20260507223025 | 61 | 360 | 0.0 | 1.7 | 0.00 | 0.00 | 0.00 | 100 | 1009.9 |
| 20260507221524 | 61 | 360 | 0.9 | 2.6 | 0.00 | 0.00 | 0.00 | 100 | 1010.1 |
| 20260507220022 | 61 | 360 | 0.0 | 0.0 | 0.00 | 0.00 | 0.00 | 100 | 1010.3 |
| 20260507214526 | 62 | 360 | 1.7 | 2.6 | 0.00 | 0.00 | 0.00 | 100 | 1010.3 |
| 20260507213017 | 63 | 360 | 0.9 | 4.3 | 0.00 | 0.00 | 0.00 | 100 | 1010.0 |
| 20260507211516 | 63 | 360 | 3.5 | 7.8 | 0.00 | 0.00 | 0.00 | 100 | 1010.0 |
| 20260507210013 | 63 | 360 | 4.3 | 7.0 | 0.00 | 0.00 | 0.00 | 100 | 1010.0 |
| 20260507204512 | 63 | 360 | 1.7 | 5.2 | 0.00 | 0.00 | 0.00 | 100 | 1010.0 |
| 20260507203013 | 64 | 360 | 0.9 | 7.0 | 0.00 | 0.00 | 0.00 | 100 | 1009.8 |
| 20260507201516 | 64 | 360 | 2.6 | 7.0 | 0.00 | 0.00 | 0.00 | 100 | 1009.5 |
| 20260507200011 | 64 | 360 | 2.6 | 4.3 | 0.00 | 0.00 | 0.00 | 100 | 1009.6 |
| 20260507194511 | 64 | 360 | 2.6 | 4.3 | 0.00 | 0.00 | 0.00 | 100 | 1009.7 |
| 20260507193017 | 64 | 360 | 0.9 | 2.6 | 0.00 | 0.00 | 0.00 | 100 | 1009.8 |
| 20260507191511 | 64 | 360 | 0.9 | 2.6 | 0.00 | 0.00 | 0.00 | 100 | 1009.9 |
| 20260507190010 | 64 | 360 | 0.0 | 2.6 | 0.00 | 0.00 | 0.00 | 100 | 1010.0 |
| 20260507184508 | 64 | 360 | 0.0 | 2.6 | 0.00 | 0.00 | 0.00 | 100 | 1009.9 |
| 20260507183009 | 64 | 360 | 0.0 | 0.0 | 0.00 | 0.00 | 0.00 | 100 | 1009.9 |
| 20260507181506 | 65 | 360 | 0.0 | 2.6 | 0.00 | 0.00 | 0.00 | 100 | 1009.8 |
| 20260507180007 | 65 | 360 | 0.9 | 2.6 | 0.00 | 0.00 | 0.00 | 100 | 1009.8 |
| 20260507174514 | 65 | 360 | 0.0 | 2.6 | 0.00 | 0.00 | 0.00 | 100 | 1009.6 |
| 20260507173008 | 66 | 360 | 0.0 | 0.0 | 0.00 | 0.00 | 0.00 | 100 | 1009.8 |
| 20260507171505 | 66 | 360 | 0.0 | 2.6 | 0.00 | 0.00 | 0.00 | 100 | 1009.7 |
| 20260507170005 | 66 | 360 | 0.0 | 1.7 | 0.00 | 0.00 | 0.00 | 100 | 1009.6 |
| 20260507164505 | 66 | 360 | 0.0 | 0.0 | 0.00 | 0.00 | 0.00 | 100 | 1009.7 |
| 20260507163102 | 66 | 360 | 0.0 | 2.6 | 0.00 | 0.00 | 0.00 | 100 | 1009.6 |
| 20260507161502 | 66 | 360 | 0.0 | 0.9 | 0.00 | 0.00 | 0.00 | 100 | 1009.7 |
| 20260507160003 | 67 | 360 | 0.9 | 3.5 | 0.00 | 0.00 | 0.00 | 100 | 1009.7 |
| 20260507154501 | 68 | 360 | 0.9 | 4.3 | 0.00 | 0.00 | 0.00 | 100 | 1009.6 |
| 20260507153100 | 68 | 360 | 2.6 | 9.6 | 0.00 | 0.00 | 0.00 | 100 | 1009.5 |
| 20260507151601 | 71 | 360 | 5.2 | 12.2 | 0.00 | 0.00 | 0.00 | 100 | 1009.6 |
| 20260507150059 | 76 | 174 | 4.3 | 10.4 | 0.00 | 0.00 | 0.00 | 99 | 1008.9 |
| 20260507144558 | 77 | 142 | 5.2 | 12.2 | 0.00 | 0.00 | 0.00 | 98 | 1008.5 |
| 20260507143113 | 78 | 144 | 3.5 | 15.6 | 0.00 | 0.00 | 0.00 | 98 | 1008.4 |
| 20260507141621 | 79 | 157 | 4.3 | 13.9 | 0.00 | 0.00 | 0.00 | 98 | 1008.2 |
| 20260507140111 | 78 | 148 | 8.7 | 13.9 | 0.00 | 0.00 | 0.00 | 97 | 1008.1 |
| 20260507134600 | 78 | 111 | 8.7 | 13.9 | 0.00 | 0.00 | 0.00 | 98 | 1007.9 |
| 20260507133100 | 79 | 126 | 8.7 | 13.9 | 0.00 | 0.00 | 0.00 | 98 | 1008.0 |
| 20260507131617 | 79 | 123 | 7.8 | 14.8 | 0.00 | 0.00 | 0.00 | 99 | 1008.0 |
| 20260507130053 | 79 | 86 | 6.1 | 14.8 | 0.00 | 0.00 | 0.00 | 99 | 1008.2 |
| 20260507124559 | 79 | 153 | 8.7 | 16.5 | 0.00 | 0.00 | 0.00 | 99 | 1008.3 |
| 20260507123054 | 79 | 140 | 7.0 | 17.4 | 0.00 | 0.00 | 0.00 | 99 | 1008.5 |
| 20260507121547 | 80 | 167 | 5.2 | 12.2 | 0.00 | 0.00 | 0.00 | 100 | 1008.6 |
| 20260507120045 | 79 | 148 | 5.2 | 11.3 | 0.00 | 0.00 | 0.00 | 100 | 1008.8 |
| 20260507114543 | 79 | 163 | 5.2 | 13.0 | 0.00 | 0.00 | 0.00 | 99 | 1009.0 |
| 20260507113103 | 78 | 146 | 5.2 | 13.0 | 0.00 | 0.00 | 0.00 | 100 | 1009.2 |
| 20260507111537 | 77 | 143 | 5.2 | 11.3 | 0.00 | 0.00 | 0.00 | 100 | 1009.3 |
| 20260507110039 | 78 | 150 | 5.2 | 9.6 | 0.00 | 0.00 | 0.00 | 100 | 1009.3 |
| 20260507104533 | 78 | 126 | 6.1 | 9.6 | 0.00 | 0.00 | 0.00 | 100 | 1009.4 |
| 20260507103032 | 77 | 196 | 6.1 | 12.2 | 0.00 | 0.00 | 0.00 | 100 | 1009.5 |
| 20260507101529 | 76 | 88 | 6.1 | 11.3 | 0.00 | 0.00 | 0.00 | 100 | 1009.6 |
| 20260507100041 | 76 | 125 | 5.2 | 11.3 | 0.00 | 0.00 | 0.00 | 100 | 1009.7 |
| 20260507094522 | 75 | 140 | 4.3 | 8.7 | 0.00 | 0.00 | 0.00 | 100 | 1009.9 |
| 20260507093018 | 74 | 132 | 4.3 | 12.2 | 0.00 | 0.00 | 0.00 | 100 | 1010.1 |
| 20260507091516 | 73 | 177 | 5.2 | 10.4 | 0.00 | 0.00 | 0.00 | 100 | 1010.1 |
| 20260507090012 | 72 | 124 | 4.3 | 7.8 | 0.00 | 0.00 | 0.00 | 100 | 1010.2 |
| 20260507084525 | 72 | 137 | 3.5 | 9.6 | 0.00 | 0.00 | 0.00 | 100 | 1010.2 |
| 20260507083017 | 70 | 136 | 4.3 | 7.8 | 0.00 | 0.00 | 0.00 | 100 | 1010.4 |
| 20260507081504 | 70 | 136 | 3.5 | 7.8 | 0.00 | 0.00 | 0.00 | 100 | 1010.4 |
| 20260507080004 | 70 | 139 | 4.3 | 9.6 | 0.00 | 0.00 | 0.00 | 100 | 1010.4 |
| 20260507074503 | 70 | 172 | 3.5 | 7.8 | 0.00 | 0.00 | 0.00 | 100 | 1010.4 |
| 20260507073109 | 69 | 125 | 5.2 | 11.3 | 0.00 | 0.00 | 0.00 | 100 | 1010.3 |
| 20260507071554 | 68 | 112 | 5.2 | 9.6 | 0.00 | 0.00 | 0.00 | 100 | 1010.3 |
| 20260507070104 | 67 | 140 | 4.3 | 10.4 | 0.00 | 0.00 | 0.00 | 100 | 1010.4 |
| 20260507064550 | 66 | 132 | 4.3 | 7.8 | 0.00 | 0.00 | 0.00 | 100 | 1010.3 |
| 20260507063052 | 64 | 115 | 4.3 | 9.6 | 0.00 | 0.00 | 0.00 | 100 | 1010.4 |
| 20260507061541 | 63 | 144 | 2.6 | 8.7 | 0.00 | 0.00 | 0.00 | 100 | 1010.4 |
| 20260507060044 | 62 | 171 | 2.6 | 7.8 | 0.00 | 0.00 | 0.00 | 100 | 1010.4 |